Date,TemperatureHighF,TemperatureAvgF,TemperatureLowF,DewpointHighF,DewpointAvgF,DewpointLowF,HumidityHigh,HumidityAvg,HumidityLow,PressureMaxIn,PressureMinIn,WindSpeedMaxMPH,WindSpeedAvgMPH,GustSpeedMaxMPH,PrecipitationSumIn
2013-3-1,57.2,44.9,34.6,34.8,32.2,29.9,89,64,38,29.92,29.82,9,2,14,0.00
2013-3-2,54.5,40.6,30.2,34.0,31.1,28.5,96,72,41,29.92,29.81,7,1,13,0.15
2013-3-3,51.4,40.1,31.9,33.7,26.3,23.6,89,60,36,29.98,29.85,10,2,18,0.00
2013-3-4,53.6,38.7,27.7,25.9,21.8,18.1,78,54,26,30.14,29.98,12,2,21,0.00
2013-3-5,65.7,51.5,31.5,56.0,37.5,24.9,89,61,34,30.14,29.65,16,4,24,0.09
2013-3-6,61.1,50.3,42.3,56.5,35.9,25.4,89,59,38,29.99,29.55,18,7,39,0.36
2013-3-7,58.7,46.2,35.1,34.8,32.1,29.2,80,60,38,30.21,29.98,13,3,20,0.00
2013-3-8,58.2,44.7,30.6,32.3,29.2,26.3,86,58,31,30.26,30.11,12,2,20,0.00
2013-3-9,65.2,48.2,34.3,41.6,34.5,28.8,92,62,35,30.31,30.23,9,2,15,0.00
2013-3-10,61.7,48.1,32.4,45.4,32.8,11.0,97,64,16,30.33,30.25,10,2,16,0.00
2013-3-11,69.5,56.7,42.5,57.4,51.2,41.3,98,83,58,30.28,29.98,12,2,18,0.00
2013-3-12,70.5,62.6,55.4,63.8,59.8,54.1,98,91,74,29.98,29.79,13,3,20,0.50
2013-3-13,63.5,53.9,43.4,54.5,37.3,27.8,96,57,27,30.08,29.90,10,3,17,0.00
2013-3-14,55.7,44.3,33.5,30.5,24.7,20.5,73,48,28,30.25,30.08,12,3,21,0.00
2013-3-15,62.3,47.6,28.7,43.2,30.9,20.6,93,58,24,30.22,30.01,11,2,17,0.00
2013-3-16,79.4,64.7,54.3,51.6,48.2,43.2,70,57,34,30.01,29.77,16,6,25,0.00
2013-3-17,74.7,59.0,49.5,54.0,49.6,45.8,88,72,45,30.13,29.88,16,5,26,0.00
2013-3-18,63.1,53.3,46.9,53.7,48.7,43.3,96,85,69,30.15,29.89,10,2,16,0.00
2013-3-19,72.3,58.8,47.4,55.9,49.7,38.1,98,75,34,29.99,29.76,10,2,17,0.34
2013-3-20,60.3,49.4,38.1,40.3,28.2,15.9,87,47,19,30.13,29.83,9,2,15,0.00
2013-3-21,55.1,43.7,32.0,34.5,26.8,14.4,94,57,21,29.98,29.72,12,3,22,0.00
2013-3-22,54.4,40.4,28.2,33.4,21.7,15.4,72,49,26,30.12,29.98,8,2,16,0.00
2013-3-23,58.1,44.7,32.6,42.3,36.7,29.9,95,75,43,30.08,29.92,5,0,8,0.03
2013-3-24,57.9,48.4,40.9,57.0,46.6,38.5,97,94,83,29.94,29.42,20,4,29,0.78
2013-3-25,54.4,47.3,42.0,43.0,36.4,27.5,96,69,40,29.86,29.54,14,5,26,0.00
2013-3-26,53.7,43.8,33.7,33.2,29.3,26.3,80,58,38,30.12,29.86,12,3,18,0.00
2013-3-27,58.0,46.2,34.8,32.7,28.3,24.5,80,53,28,30.23,30.12,12,2,20,0.00
2013-3-28,59.9,45.3,30.0,33.6,28.0,25.3,83,55,29,30.28,30.16,12,2,21,0.00
2013-3-29,62.2,48.0,29.9,40.7,32.3,26.5,90,58,28,30.35,30.21,10,1,17,0.00
2013-3-30,62.5,53.0,46.8,48.9,44.0,39.9,93,73,46,30.28,30.15,7,1,12,0.05
2013-3-31,72.5,60.8,47.6,57.5,53.5,44.0,96,78,57,30.15,29.88,15,4,23,0.01